Wind_Speed
10 8 8 8 9 8 6 3 7 9 5 4 8 12 13 14 15 15 15 19 21 22 25 29 30 32 33 35 36 37 39 38 36 38 40 39 38 38
13 12 11 11 11 10 9 8 8 12 9 7 10 12 17 20 22 24 22 21 26 22 25 27 30 31 32 32 33 36 39 40 42 42 39 39 40 40
12 12 12 12 12 11 11 8 10 12 13 17 19 21 23 23 24 24 25 24 22 22 24 25 27 30 26 28 32 33 37 37 38 39 40 39 40 43
10 11 11 11 11 10 9 9 10 11 12 15 17 18 18 20 20 22 22 23 25 25 24 25 28 27 27 23 23 27 30 33 36 39 40 43 43 43
13 13 13 12 11 10 10 10 11 11 12 14 17 17 18 20 20 19 19 20 18 20 21 22 25 26 27 27 24 23 27 33 34 39 43 41 45 43
11 11 11 11 10 11 12 11 11 12 13 13 14 15 16 18 20 22 21 21 19 18 16 16 20 21 22 25 27 24 24 27 31 33 35 43 41 43
11 10 10 9 9 10 11 11 12 13 13 14 14 16 17 19 21 21 23 25 20 18 19 19 19 18 18 21 23 26 29 25 26 31 34 32 37 41
13 12 11 11 11 11 12 12 12 14 15 15 16 16 17 18 19 19 22 25 27 20 30 24 24 22 20 18 19 22 26 32 27 26 29 32 33 33
17 17 16 15 14 12 11 11 13 14 15 17 19 18 19 17 19 20 22 23 23 26 29 31 26 24 22 19 19 19 17 25 27 30 26 23 23 32
17 17 18 17 17 16 16 18 17 16 16 17 18 20 20 18 17 18 22 24 26 26 26 29 28 31 27 21 21 16 17 17 21 29 34 29 24 24
18 17 18 19 19 16 18 20 20 20 17 17 18 20 21 20 17 22 21 24 28 29 28 23 32 36 33 25 20 16 16 18 23 24 34 30 29 27
17 17 18 19 18 16 17 19 23 23 21 20 19 20 21 19 18 20 21 23 23 25 26 28 30 30 26 23 14 29 24 23 22 22 25 24 24 30
19 20 20 19 17 17 17 20 23 21 23 25 27 27 27 26 25 24 23 23 22 24 24 24 24 30 28 33 37 31 28 25 23 21 19 23 19 25
20 21 21 19 19 19 19 20 20 20 24 26 27 27 25 23 21 20 20 23 24 26 27 26 29 27 29 33 32 35 31 28 26 22 20 17 23 16
18 20 19 20 19 23 25 23 21 22 21 21 22 23 23 22 22 21 22 24 27 30 30 28 29 27 26 28 34 36 33 31 26 16 19 17 17 21
20 20 23 23 25 24 22 19 18 18 19 19 21 23 25 25 26 26 29 31 34 37 34 30 25 23 26 28 28 31 32 32 30 26 25 22 18 19
18 22 25 25 23 22 20 19 18 18 19 20 21 23 25 26 27 27 28 29 31 34 32 27 24 24 24 26 27 29 31 30 26 28 24 24 20 18
19 22 24 23 22 21 21 21 20 20 20 21 21 21 23 24 26 27 26 26 26 27 30 30 29 25 23 26 24 24 21 24 24 24 22 23 25 19
20 20 21 21 21 21 22 23 25 24 24 24 24 24 24 25 25 25 25 25 27 29 31 28 25 20 25 31 29 20 22 21 22 25 25 24 26 24
17 18 19 20 21 22 24 25 26 26 26 26 26 25 24 24 26 27 27 27 28 29 28 25 23 23 24 30 34 32 23 26 26 27 27 25 26 25
17 17 18 19 22 24 25 25 26 26 26 26 27 27 27 26 27 27 27 27 27 27 31 31 28 24 24 28 34 35 29 24 25 28 29 24 26 26
17 18 18 20 23 24 25 26 27 26 27 27 27 27 26 26 27 26 26 27 27 28 30 29 26 24 25 25 32 34 31 29 24 25 26 24 27 22
17 18 19 21 24 24 25 26 27 29 28 28 28 28 27 28 27 27 26 26 27 28 28 29 27 25 25 24 26 30 31 30 27 27 29 24 25 28
Wind_Direction
348 343 327 325 319 327 320 327 283 292 249 210 227 225 237 249 260 267 265 266 268 266 266 271 275 272 267 262 260 258 256 254 251 252 255 249 249 249
331 329 324 322 323 317 314 324 301 279 270 274 262 279 287 288 284 282 284 276 269 273 274 276 276 277 276 268 262 260 261 259 253 254 254 247 247 250
329 325 323 327 326 329 332 309 283 278 277 274 274 279 283 284 284 282 284 288 278 273 270 269 272 271 275 276 269 264 261 259 256 249 246 249 248 246
340 334 333 332 327 326 320 305 305 305 304 299 297 300 303 298 294 290 290 289 287 285 279 273 267 275 273 277 274 270 266 262 255 251 252 249 250 249
340 338 337 336 332 327 325 325 325 325 322 317 316 319 313 311 307 307 307 300 302 294 286 280 274 272 272 270 274 273 269 262 261 254 249 250 244 244
342 339 337 333 329 326 328 331 330 331 332 332 331 326 324 323 322 322 315 313 313 307 297 292 287 281 275 270 266 268 267 266 263 258 253 251 250 243
341 338 331 326 321 316 313 312 310 316 325 331 332 332 331 331 332 330 328 325 324 326 313 312 304 292 282 275 274 268 265 262 268 263 252 251 250 243
328 329 328 322 312 305 301 301 300 307 311 317 321 327 327 329 325 325 332 334 339 336 327 322 324 314 307 302 295 283 275 264 260 268 265 251 244 244
320 320 320 317 315 312 306 300 291 285 289 298 305 311 314 321 320 320 324 327 324 331 326 327 330 322 318 314 306 293 297 276 270 255 265 272 264 244
315 315 314 312 311 310 305 300 298 291 286 289 292 300 302 306 311 304 313 313 316 316 326 326 325 322 322 319 310 292 280 282 279 271 261 262 276 266
312 312 310 309 308 306 306 306 304 300 293 288 289 288 287 283 285 295 306 308 314 319 328 325 323 320 321 317 308 294 291 299 289 275 262 268 260 275
310 311 314 313 311 312 309 309 305 307 309 305 297 290 285 290 290 295 298 300 307 314 320 317 318 325 325 323 300 308 305 302 293 288 278 263 265 255
312 317 317 318 313 308 306 299 301 308 301 295 295 295 295 295 291 289 289 290 296 297 311 310 305 311 307 307 309 311 313 309 304 293 285 264 259 250
307 312 315 320 312 304 298 296 295 296 287 291 292 295 298 298 293 285 281 283 289 295 302 302 298 299 299 300 299 309 309 308 309 305 294 277 249 256
307 310 308 309 309 307 310 308 299 292 291 293 293 293 293 294 293 290 284 279 282 288 291 292 294 293 291 291 294 300 304 304 307 302 301 289 264 251
316 316 312 312 311 311 312 310 306 300 296 293 292 291 294 293 290 288 287 289 290 289 291 293 292 294 295 292 294 291 292 286 298 300 301 294 277 259
311 303 306 310 312 314 314 314 313 309 303 299 294 292 292 293 294 294 293 293 292 296 299 299 299 298 293 293 289 285 287 290 296 299 296 296 283 266
299 301 307 311 312 315 317 317 316 315 313 308 304 301 299 298 298 296 297 297 294 295 296 301 305 305 297 287 283 292 286 284 293 298 295 296 293 279
300 307 309 312 314 316 317 317 316 316 313 311 307 306 304 301 298 297 296 295 293 294 297 300 300 300 298 291 294 289 282 285 291 293 290 286 288 287
300 306 311 314 316 317 317 315 314 313 311 310 308 306 304 301 298 297 296 296 297 297 297 297 296 293 286 288 293 287 279 284 292 292 291 290 284 285
310 312 313 316 318 317 316 315 314 313 312 311 309 306 304 300 297 296 296 294 292 289 288 291 295 295 287 284 280 281 287 291 292 289 288 283 282 282
309 310 314 317 318 317 318 317 314 314 313 311 308 304 301 297 294 294 294 293 293 292 291 294 295 294 291 280 278 284 290 296 293 283 275 268 263 264
308 311 317 320 320 320 320 317 316 316 315 315 311 307 304 299 297 294 292 292 291 291 292 294 296 294 291 288 286 290 295 297 293 286 277 274 257 255
Height
1436 1434 1434 1433 1431 1431 1428 1428 1432 1437 1426 1423 1425 1425 1427 1430 1431 1432 1431 1433 1434 1434 1435 1436 1434 1434 1435 1437 1438 1440 1444 1444 1445 1446 1450 1453 1457 1459
1436 1434 1433 1431 1429 1429 1430 1428 1431 1435 1430 1425 1424 1424 1425 1425 1425 1426 1425 1426 1428 1428 1427 1427 1427 1426 1427 1428 1428 1429 1432 1434 1434 1437 1439 1443 1446 1449
1435 1433 1432 1429 1428 1427 1425 1427 1433 1433 1427 1423 1424 1424 1424 1420 1421 1422 1422 1420 1421 1420 1419 1418 1420 1419 1419 1419 1419 1419 1421 1422 1424 1426 1428 1432 1435 1439
1434 1432 1430 1428 1427 1427 1427 1430 1429 1427 1425 1423 1422 1420 1419 1419 1419 1417 1414 1413 1413 1413 1412 1412 1411 1413 1412 1410 1409 1411 1412 1412 1413 1416 1417 1421 1424 1427
1433 1431 1428 1427 1426 1426 1426 1425 1424 1422 1421 1421 1418 1417 1416 1415 1413 1410 1407 1408 1409 1407 1407 1405 1404 1404 1404 1403 1403 1403 1402 1403 1403 1403 1406 1409 1412 1415
1434 1431 1429 1427 1426 1424 1423 1422 1422 1421 1420 1418 1416 1416 1414 1410 1409 1405 1404 1404 1402 1401 1400 1397 1398 1397 1397 1396 1397 1395 1395 1394 1394 1394 1395 1397 1399 1402
1434 1432 1431 1429 1426 1425 1423 1423 1422 1421 1419 1417 1416 1414 1412 1408 1406 1405 1402 1400 1397 1396 1392 1393 1392 1391 1389 1389 1388 1387 1388 1386 1386 1385 1386 1386 1387 1389
1433 1431 1429 1427 1425 1423 1421 1419 1418 1417 1417 1415 1415 1412 1412 1410 1407 1404 1400 1397 1392 1392 1386 1385 1387 1386 1382 1380 1381 1380 1378 1378 1378 1377 1376 1377 1376 1378
1431 1429 1427 1424 1423 1421 1419 1417 1416 1415 1413 1412 1409 1409 1407 1407 1404 1399 1398 1394 1394 1388 1384 1378 1380 1382 1378 1375 1375 1373 1372 1369 1367 1368 1370 1370 1370 1369
1428 1426 1423 1420 1418 1416 1415 1413 1411 1409 1408 1408 1406 1403 1403 1403 1400 1397 1394 1391 1387 1390 1381 1372 1376 1373 1370 1369 1368 1366 1365 1362 1361 1359 1361 1362 1363 1361
1424 1422 1419 1417 1414 1412 1410 1407 1405 1404 1403 1402 1400 1400 1399 1397 1396 1392 1388 1386 1383 1380 1375 1373 1373 1366 1364 1365 1364 1362 1360 1358 1354 1351 1352 1354 1354 1354
1420 1418 1416 1413 1411 1408 1406 1404 1401 1400 1398 1395 1394 1393 1392 1390 1389 1386 1384 1381 1379 1375 1376 1373 1369 1365 1357 1356 1358 1357 1354 1352 1349 1347 1346 1347 1347 1349
1414 1413 1411 1409 1408 1406 1404 1400 1397 1395 1392 1389 1387 1385 1384 1383 1382 1380 1378 1376 1374 1371 1373 1369 1365 1364 1361 1353 1348 1349 1347 1344 1343 1341 1341 1340 1341 1342
1409 1408 1406 1404 1403 1401 1399 1396 1393 1391 1386 1383 1381 1379 1378 1377 1376 1374 1373 1372 1370 1367 1366 1366 1361 1360 1356 1350 1345 1341 1340 1338 1336 1334 1333 1334 1335 1335
1405 1403 1402 1399 1397 1394 1391 1388 1385 1383 1380 1378 1375 1373 1372 1371 1370 1368 1367 1365 1363 1361 1360 1359 1355 1353 1350 1345 1340 1335 1333 1330 1331 1328 1327 1326 1326 1328
1400 1398 1396 1394 1391 1388 1385 1382 1379 1377 1374 1372 1370 1368 1366 1364 1363 1362 1359 1357 1353 1350 1350 1350 1348 1345 1342 1338 1335 1330 1327 1325 1323 1322 1321 1319 1320 1321
1396 1393 1391 1389 1385 1383 1380 1378 1375 1372 1370 1367 1364 1362 1359 1357 1355 1354 1351 1349 1345 1341 1338 1339 1339 1337 1334 1331 1326 1323 1319 1318 1317 1316 1315 1313 1313 1314
1391 1388 1386 1384 1381 1378 1375 1372 1370 1367 1364 1361 1358 1356 1353 1351 1348 1345 1343 1340 1337 1335 1333 1332 1330 1328 1325 1322 1321 1316 1314 1312 1312 1310 1310 1309 1306 1308
1386 1384 1382 1380 1376 1373 1370 1367 1363 1360 1358 1355 1352 1349 1346 1343 1340 1338 1336 1334 1331 1329 1327 1325 1324 1324 1320 1313 1312 1314 1310 1307 1306 1305 1305 1304 1303 1301
1382 1379 1377 1375 1372 1369 1366 1362 1358 1355 1351 1348 1344 1341 1339 1336 1333 1330 1328 1326 1324 1322 1320 1319 1319 1318 1315 1311 1304 1302 1306 1302 1300 1298 1297 1297 1296 1296
1377 1375 1373 1370 1367 1363 1360 1356 1352 1348 1345 1341 1337 1334 1331 1328 1325 1323 1321 1319 1317 1316 1312 1311 1311 1311 1308 1305 1298 1293 1295 1296 1294 1290 1289 1292 1291 1290
1373 1370 1368 1365 1362 1358 1354 1350 1345 1342 1338 1334 1330 1327 1324 1321 1318 1316 1314 1312 1310 1307 1304 1303 1302 1302 1300 1297 1290 1288 1287 1287 1286 1283 1283 1285 1287 1284
1368 1365 1362 1359 1356 1352 1348 1343 1339 1334 1330 1326 1322 1319 1316 1313 1311 1309 1307 1305 1302 1299 1297 1294 1294 1293 1290 1289 1286 1282 1279 1278 1278 1274 1271 1273 1276 1277